OpenBCM V1.08-5-g2f4a (Linux)

Packet Radio Mailbox

IZ3LSV

[San Dona' di P. JN]

 Login: GUEST





  
I0OJJ  > KEPS     27.08.25 02:30l 316 Lines 15020 Bytes #123 (0) @ AMSAT
BID : ORB25239.1
Read: GUEST
Subj: 2Line Orbital Elements 25239.AMSAT
Path: IZ3LSV<IK6IHL<IK7NXU<HB9ON<HB9ON<PI8ZTM<VK2IO<VK2RZ<IR0AAB<I0OJJ
Sent: 250827/0025z @:I0OJJ.ITA.EU [Rome] obcm1.08-10-g596e
From: I0OJJ @ I0OJJ.ITA.EU (Gustavo)
To:   KEPS @ AMSAT
X-Info: This message was generated automatically


QST de KM1P

AMSAT Orbital Elements for Amateur Satellites in TLE Format
From Orbital Analysis Auxilliary Summer Office
New England Sci-Tech STEM Education Center
Narragansett RI August 27, 2025
To all radio amateurs


These element sets describe the orbits of various satellites 
in use by the amateur radio community. For details see:
www.amsat.org/keplerian-elements-formats/

A daily update of element sets is available at:
www.amsat.org/tle/daily-bulletin.txt
or without bulletin text:
www.amsat.org/tle/dailytle.txt


AO-07
1 07530U 74089B   25238.62136896 -.00000047  00000-0 -77797-6 0  9990
2 07530 101.9970 243.7237 0012094 335.1299 143.3166 12.53691028323605
UO-11
1 14781U 84021B   25237.85683690  .00001475  00000-0  16022-3 0  9991
2 14781  97.7618 202.7342 0009410  82.7608 277.4679 14.89581512213143
AO-27
1 22825U 93061C   25238.39977263  .00000103  00000-0  56301-4 0  9997
2 22825  98.7306 300.3206 0007424 241.0328 119.0111 14.30820661664848
FO-29
1 24278U 96046B   25238.60699068  .00000008  00000-0  41225-4 0  9998
2 24278  98.5628 122.1953 0350507 140.3015 222.4352 13.53252015433322
NOAA-15
1 25338U 98030A   25238.57142929  .00000122  00000-0  67874-4 0  9991
2 25338  98.5331 261.8169 0011231 127.0820 233.1389 14.27006716419279
GO-32
1 25397U 98043D   25238.52688114  .00000068  00000-0  49644-4 0  9990
2 25397  98.9780 219.2997 0001507  30.4762 329.6504 14.24331859409386
ISS
1 25544U 98067A   25238.52848884  .00011814  00000-0  21312-3 0  9994
2 25544  51.6348 318.4329 0003292 275.1400  84.9213 15.50204319526071
NO-44
1 26931U 01043C   25238.60443373  .00000095  00000-0  66615-4 0  9991
2 26931  67.0502 286.1019 0006880 276.0215  84.0103 14.31766537248277
SO-50
1 27607U 02058C   25238.57430778  .00001033  00000-0  14454-3 0  9996
2 27607  64.5540 319.7459 0064531 317.4366  42.1746 14.81810702220780
CO-55
1 27844U 03031E   25238.53164388  .00000304  00000-0  15129-3 0  9998
2 27844  98.6783 245.8072 0008914 327.9002  32.1633 14.24048026149734
CO-57
1 27848U 03031J   25238.51666090  .00000250  00000-0  12932-3 0  9996
2 27848  98.6811 245.7387 0009171 346.3085  13.7843 14.23375423149450
RS-22
1 27939U 03042A   25238.62039803  .00001127  00000-0  18570-3 0  9995
2 27939  98.3354  49.9960 0012454 119.8835 328.2190 14.72516837172180
CO-58
1 28895U 05043F   25238.46451171  .00001545  00000-0  25849-3 0  9999
2 28895  98.2605  23.8433 0015468  62.8996 297.3786 14.71245459 58390
CO-65
1 32785U 08021C   25238.54038078  .00006559  00000-0  46478-3 0  9998
2 32785  97.7923 210.3450 0008325 315.9423  44.1139 15.05120427940804
CO-66
1 32791U 08021J   25238.47557141  .00012866  00000-0  59330-3 0  9993
2 32791  97.7340 220.3707 0001380 221.9080 138.2049 15.20394810942329
RS-30
1 32953U 08025A   25238.62752894  .00000036  00000-0  18993-3 0  9992
2 32953  82.5063 178.6479 0017970 234.1452 125.7960 12.43167519783091
NOAA-19
1 33591U 09005A   25238.56971970  .00000113  00000-0  83964-4 0  9998
2 33591  98.9916 303.6916 0014505 140.5968 219.6262 14.13399097852864
SRMSAT
1 37841U 11058D   25238.17015931  .00000400  00000-0  73385-4 0  9999
2 37841  19.9729  45.0072 0011683 198.3468 323.2723 14.11455680716087
ZACUBE-1
1 39417U 13066B   25238.32531147  .00003342  00000-0  28802-3 0  9991
2 39417  97.7864 194.9839 0044237 150.1834 210.1922 14.97255847636545
Delfi-N3xt
1 39428U 13066N   25238.25673886  .00006875  00000-0  68528-3 0  9995
2 39428  97.8297 155.0645 0085394 104.1962 256.8761 14.89164679630636
GOMX-1
1 39430U 13066Q   25238.54246828  .00001410  00000-0  22498-3 0  9998
2 39430  97.6753  92.4050 0130712 303.2874  55.5866 14.67904915626666
LO-74
1 39440U 13066AA  25238.56816433  .00003472  00000-0  35001-3 0  9990
2 39440  97.8527 182.6281 0059621 283.1069  76.3499 14.90478691633054
AO-73
1 39444U 13066AE  25238.45178717  .00007601  00000-0  55527-3 0  9991
2 39444  97.7874 200.7336 0042556 122.4771 238.0579 15.03207177635286
DTUSAT-2
1 40030U 14033W   25238.35415678  .00007344  00000-0  46619-3 0  9994
2 40030  98.0620 214.0123 0010052 147.5506 212.6342 15.09163939608126
EO-80
1 40032U 14033Y   25238.37046677  .00006259  00000-0  39715-3 0  9990
2 40032  98.0501 213.5759 0010561  97.3941 262.8487 15.09242052608104
LILACSAT-2
1 40908U 15049K   25238.59721895  .00012781  00000-0  31634-3 0  9995
2 40908  97.5035 260.9072 0007404 229.5148 130.5453 15.40548605550238
IO-86
1 40931U 15052B   25151.18580175  .00001241  00000-0  78118-4 0  9996
2 40931   6.0006  24.0987 0012733 338.8432  21.1169 14.78805930523159
Horyu-4
1 41340U 16012D   25238.59375521  .00028067  00000-0  67416-3 0  9999
2 41340  30.9971 326.1088 0007159 149.6192 210.4870 15.40086915524816
Lapan A3
1 41603U 16040E   25238.65120027  .00003733  00000-0  12950-3 0  9994
2 41603  97.1404 240.2299 0010634   1.6219 358.5055 15.30344501509722
CAS-2T
1 41847U 16066G   25238.44967391  .00000572  00000-0  91523-4 0  9994
2 41847  98.4154 312.2228 0344426 303.0062  53.8463 14.43666863462259
CAS-4B
1 42759U 17034B   25238.65221247  .00149001  00000-0  90916-3 0  9994
2 42759  43.0015 212.7680 0020728 123.6024 236.6828 15.75888433454869
CAS-4A
1 42761U 17034D   25238.34707701  .00141459  00000-0  77727-3 0  9991
2 42761  43.0057 210.6128 0021370 127.9224 232.3582 15.78234661454844
TechnoSat
1 42829U 17042E   25238.46010698  .00003113  00000-0  24001-3 0  9991
2 42829  97.4004  43.4806 0018049  24.0513 336.1551 15.02178249442411
AO-91
1 43017U 17073E   25238.56584158  .00007301  00000-0  36907-3 0  9994
2 43017  97.5135 107.3798 0167266 260.5683  97.6603 15.05916453420949
S-Net D
1 43186U 18014G   25238.31862145  .00004692  00000-0  27318-3 0  9991
2 43186  97.5529 140.4301 0007764 328.9985  31.0787 15.12486526414120
S-Net B
1 43187U 18014H   25238.58967689  .00005159  00000-0  30008-3 0  9999
2 43187  97.5533 140.6740 0008293 321.6481  38.4159 15.12470063414161
S-Net A
1 43188U 18014J   25238.31873219  .00004650  00000-0  27074-3 0  9990
2 43188  97.5543 140.5662 0008243 323.6757  36.3913 15.12492245414125
S-Net C
1 43189U 18014K   25238.59226677  .00005282  00000-0  30715-3 0  9999
2 43189  97.5557 140.8644 0009491 312.5422  47.5006 15.12467108412716
Ten-Koh
1 43677U 18084G   25238.47292953  .00002112  00000-0  17103-3 0  9990
2 43677  98.0834  53.8146 0007019  17.7146 342.4320 15.00888996371925
PO-101
1 43678U 18084H   25238.58245374  .00002675  00000-0  22802-3 0  9994
2 43678  98.1082  57.7180 0009156  40.6492 319.5411 14.98638493372069
QO-100
1 43700U 18090A   25238.57197729  .00000140  00000-0  00000-0 0  9994
2 43700   0.0118 137.1836 0001081  31.4868  38.0934  1.00272164 24720
MinXSS-2
1 43758U 18099A   25238.58512313  .00018501  00000-0  68031-3 0  9998
2 43758  97.4954 304.9649 0010435 234.4676 125.5591 15.27890580368872
AO-95
1 43770U 18099N   25238.11146697  .00009985  00000-0  48727-3 0  9995
2 43770  97.4846 295.3766 0008851 305.7525  54.2885 15.18456566368318
SNUSat 2
1 43782U 18099AA  25238.60509306  .00007277  00000-0  38616-3 0  9990
2 43782  97.4529 291.9685 0010500 238.0314 121.9898 15.15593539368314
SnugLite
1 43784U 18099AC  25238.12461231  .00009361  00000-0  45299-3 0  9994
2 43784  97.4341 291.2262 0002369 218.6622 141.4444 15.18795769368408
ITASat 1
1 43786U 18099AE  25238.56818773  .00006974  00000-0  38926-3 0  9997
2 43786  97.4495 291.2056 0012511 298.8812  61.1164 15.13786355368258
EAGLET 1
1 43790U 18099AJ  25238.38244780  .00003518  00000-0  22250-3 0  9997
2 43790  97.4695 290.7106 0010310 283.6492  76.3589 15.09617820367800
ESEO
1 43792U 18099AL  25238.57504411  .00001114  00000-0  87382-4 0  9998
2 43792  97.4421 283.1040 0009890 254.5366 105.4768 15.02864906367535
JO-97
1 43803U 18099AX  25237.72504625  .00010689  00000-0  46570-3 0  9994
2 43803  97.4594 296.1658 0006401 223.8293 136.2436 15.22363071368502
Suomi 100
1 43804U 18099AY  25238.52811139  .00010489  00000-0  49382-3 0  9997
2 43804  97.4658 296.0238 0011033 230.1982 129.8282 15.19670888368533
ISAT
1 43879U 18111D   25238.52298890  .00024606  00000-0  78007-3 0  9999
2 43879  97.5887 154.7612 0005331 285.4025  74.6627 15.32689001365620
UWE-4
1 43880U 18111E   25238.33080398  .00016197  00000-0  59485-3 0  9997
2 43880  97.5830 152.4629 0009071 303.5493  56.4879 15.27976882365491
Sparrow
1 43881U 18111F   25238.50328302  .00027341  00000-0  82838-3 0  9998
2 43881  97.6046 157.9376 0004716 347.5578  12.5547 15.34115021365723
Prox-1
1 44339U 19036A   25238.39148711  .00010971  00000-0  13385-2 0  9996
2 44339  23.9961 270.1425 0006771 233.4597 126.5277 14.81360643329561
Taurus 1
1 44530U 19059C   25238.65928653  .00007193  00000-0  13012-2 0  9993
2 44530  98.6155  21.8362 0010008 150.5410 209.6358 14.66655797315388
Duchifat 3
1 44854U 19089C   25238.32331159  .00065271  00000-0  98945-3 0  9998
2 44854  36.9390 218.5146 0007722 229.5242 130.4844 15.53506921315086
TO-108
1 44881U 19093C   25238.61987668  .00000825  00000-0  10109-3 0  9997
2 44881  97.7876 312.6260 0013172 341.2344  18.8384 14.85737705307667
FloripaSat 1
1 44885U 19093G   25238.59098351  .00006553  00000-0  54261-3 0  9991
2 44885  97.8142 326.3798 0007891 308.1685  51.8826 14.99191557308435
RS-44
1 44909U 19096E   25238.34434284  .00000033  00000-0  79008-4 0  9997
2 44909  82.5248 175.6202 0218427 113.6024 248.8178 12.79742760264635
UPMSat 2
1 46276U 20061E   25237.78495261  .00139545  00000-0  68317-3 0  9990
2 46276  97.2346 315.3863 0002396 211.7166 148.3959 15.81888853277618
SALSAT
1 46495U 20068K   25238.46151828  .00006968  00000-0  29293-3 0  9996
2 46495  97.8675 220.1706 0009208 247.2757 112.7506 15.23724929270389
